Location: Sungai Igah
(2.7333°N, 114.2500°E)
Time: 11:00:24
(UTC+00:00)

Cosmos 2082 Rocket - Pass Details

Date: 14 June 2021
Orbit: 832 x 855 km, 71.0° (Epoch: 04 August)

Event Time Altitude Azimuth Distance (km) Brightness Sun altitude
Exits shadow 21:21:47 17° 237° (WSW) 1,968 3.5 -13.0°
Maximum altitude 21:25:03 30° 286° (WNW) 1,446 3.0 -12.3°
Drops below altitude 10° 21:29:53 10° 346° (NNW) 2,430 4.7 -11.2°
Sets 21:32:35 0° 357° (N) 3,360 5.6 -10.5°
